Location: Boca de Tacagua
(10.5333°N, 66.9833°W)
Time: 06:40:47
(UTC+00:00)

Ariane H10-3 - Pass Details

Date: 03 July 2022
Orbit: 475 x 36438 km, 5.2° (Epoch: 12 August)

Event Time Altitude Azimuth Distance (km) Brightness Sun altitude
Rises 22:15:18 0° 267° (W) 7,713 8.5 7.9°
Reaches altitude 10° 22:18:27 10° 266° (W) 7,660 8.5 7.2°
Maximum altitude 23:58:35 80° 213° (SSW) 24,023 9.4 -15.2°
Drops below altitude 10° 08:32:36 10° 119° (ESE) 4,217 6.1 -22.4°
Sets 08:34:31 0° 113° (ESE) 4,611 6.5 -22.0°
